Terminal Aerodrome Forecast
Issued by NWS Pittsburgh, PA

Current Version | Previous Version | Graphics & Text | Print | Product List | Glossary On
Versions: 1 2 3 4 5 6 7 8 9 10 11 12 13 14 15 16 17 18 19 20 21 22 23 24 25 26 27 28 29 30 31 32 33 34 35 36 37 38 39
000
FTUS41 KPBZ 211938 AAA
TAFPIT
TAF AMD
KPIT 211938Z 2120/2224 33015KT P6SM -RA OVC008
     FM212200 33010KT P6SM VCSH OVC010
     FM220400 36008KT P6SM OVC050
     FM220800 01008KT P6SM -RA OVC025
     FM221000 04010KT 3SM -RA BR OVC015
     FM221800 03006KT 3SM -RA BR OVC008=

USA.gov is the U.S. government's official web portal to all federal, state and local government web resources and services.